(509135) = 2006 AB35

Discovered at Mount Lemmon on 2005-11-30 by Mt. Lemmon Survey.

Orbit

Orbit type: Main Belt

Note: WebGL enabled browser required.

epoch2024-03-31.0
epoch JD2460400.5
perihelion date2018-07-06.74986
perihelion JD2458306.24986
argument of perihelion (°)59.32652
ascending node (°)115.23352
inclination (°)16.03368
eccentricity0.0657552
perihelion distance (AU)3.0199412
Tisserand w.r.t. Jupiter3.1
ΔV w.r.t. Earth (km/sec)11.9
semimajor axis (AU)3.2324943
mean anomaly (°)355.16138
mean daily motion (°/day)0.16958880
aphelion distance (AU)3.445
period (years)5.81
P-vector [x]-0.96523085
P-vector [y]0.00557078
P-vector [z]0.26133957
Q-vector [x]-0.07685138
Q-vector [y]-0.96163594
Q-vector [z]-0.26334423
absolute magnitude16.42
phase slope0.15
uncertainty0
referenceMPEC 2024-E144
observations used137
oppositions10
arc length (days)6675
first opposition used2005
last opposition used2024
residual rms (arc-secs)0.87
perturbers coarse indicatorM-v
perturbers precise indicator003Ek
first observation date used2005-11-30.0
last observation date used2024-03-10.0
computer nameMPCLINUX
JD of orbit computation2458142.217564
perihelion JD uncertainty (days)8.4846E-03
argument of perihelion uncertainty (°)1.5096E-03
ascending node uncertainty (°)4.5506E-05
inclination uncertainty (°)4.9031E-05
eccentricity uncertainty 1.4441E-06
perihelion distance uncertainty (AU)4.4981E-06
Minimum Orbit Intersection Distances (in AU)
for orbit epoch: 2460400.5, reference: E2024-G77
Mercury2.62797
Venus2.31423
Earth2.06356
Mars1.4014
Jupiter1.69491
Saturn5.85852
Uranus15.4646
Neptune26.53

Observations

135 total observations over interval: 2005 11 30.47998 – 2024 03 10.507944
These data are available for download (format description).

